Regional Weather Roundup
Issued by NWS

Home | Current Version | Previous Version | Graphics & Text | Print | Product List | Glossary On
Versions: 1 2 3 4 5 6 7 8 9 10 11 12 13 14 15 16 17 18 19 20 21 22 23 24 25 26 27 28 29 30 31 32 33 34 35 36 37 38 39 40 41 42 43 44 45 46 47 48 49 50
000
ASUS43 KOAX 172310
RWRNE

WEATHER ROUNDUP FOR NEBRASKA
NATIONAL WEATHER SERVICE OMAHA NE
500 PM CST WED DEC 17 2014

NOTES: SATELLITE DATA IS BEING USED TO AUGMENT CLOUD COVER ABOVE
       12000 FEET.
       "FAIR" INDICATES FEW OR NO CLOUDS BELOW 12,000 FEET WITH NO
       SIGNIFICANT WEATHER AND/OR OBSTRUCTIONS TO VISIBILITY.

  * THESE STATIONS DO NOT REPORT WEATHER SUCH AS RAIN...SNOW OR FOG.

NEZ001>004-019>022-054>056-180000-
NEBRASKA PANHANDLE

CITY           SKY/WX    TMP DP  RH WIND       PRES   REMARKS
SCOTTSBLUFF    CLEAR     20  17  88 E9        29.96R WCI   9
ALLIANCE       CLOUDY    23  21  92 S13       29.97R WCI  11
CHADRON        PTCLDY    24  18  77 S6        29.98R WCI  17
KIMBALL        PTCLDY    22  19  89 SW5       29.91S WCI  16
SIDNEY         CLOUDY    22  20  92 S12       29.97R FOG     WCI  10
$$

NEZ057>060-069>072-079>082-180000-
SOUTHWEST NEBRASKA

CITY           SKY/WX    TMP DP  RH WIND       PRES   REMARKS
NORTH PLATTE   CLOUDY    22  21  96 SE8       30.09R FOG     WCI  12
IMPERIAL       CLOUDY    23  20  88 S6        30.05S WCI  16
LEXINGTON      CLOUDY    23  22  95 E7        30.12F WCI  15
MCCOOK         CLOUDY    23  22  96 E8        30.10S FOG     WCI  14
OGALLALA       CLOUDY    23  22  96 S6        30.05R WCI  15
$$

NEZ005>010-023>029-035>040-094-180000-
NORTH CENTRAL NEBRASKA

CITY           SKY/WX    TMP DP  RH WIND       PRES   REMARKS
VALENTINE      CLOUDY    22  19  89 S12       30.09R WCI  10
AINSWORTH      CLOUDY    21  20  96 S6        30.10S FOG     WCI  13
BROKEN BOW     CLOUDY    22  19  89 SE7       30.12S WCI  13
O`NEILL        CLOUDY    20  19  96 CALM      30.18S
ORD            CLOUDY    22  18  85 SE6       30.16S WCI  14
THEDFORD       CLOUDY    22  21  96 S8        30.08S FOG     WCI  13
$$

NEZ041-046>049-061>064-073>077-083>087-180000-
SOUTH CENTRAL NEBRASKA

CITY           SKY/WX    TMP DP  RH WIND       PRES   REMARKS
GRAND ISLAND   CLOUDY    25  19  78 E8        30.19S WCI  16
AURORA         CLOUDY    26  20  77 E8        30.19S WCI  17
HASTINGS       CLOUDY    25  19  78 E7        30.16S WCI  17
HEBRON         CLOUDY    28  17  65 E8        30.20S WCI  19
HOLDREGE       CLOUDY    25  22  88 E7        30.13S WCI  17
KEARNEY *      CLOUDY    25  19  80 E7        30.15F WCI  17
YORK           CLOUDY    27  18  69 E8        30.21S WCI  18
$$

NEZ011>018-030>034-042>045-180000-
NORTHEAST NEBRASKA

CITY           SKY/WX    TMP DP  RH WIND       PRES   REMARKS
NORFOLK        CLOUDY    25  15  66 E7        30.21F WCI  17
ALBION         CLOUDY    24  19  80 SE3       30.20R
BLAIR          CLOUDY    27  18  69 NE5       30.25R WCI  22
COLUMBUS *     CLOUDY    25  12  58 E6        30.24R WCI  18
FREMONT        CLOUDY    28  19  70 CALM      30.26R
TEKAMAH        CLOUDY    26  17  68 VRB3      30.28R
WAYNE          CLOUDY    26  17  70 NE6       30.24F WCI  19
$$

NEZ050>053-065>068-078-088>093-180000-
SOUTHEAST NEBRASKA

CITY           SKY/WX    TMP DP  RH WIND       PRES   REMARKS
LINCOLN        CLOUDY    26  17  68 E6        30.26R WCI  19
OMAHA EPPLEY   CLOUDY    28  16  60 E5        30.28S WCI  23
BEATRICE       CLOUDY    28  19  70 E7        30.22S WCI  20
FALLS CITY     CLOUDY    28  19  69 E6        30.26S WCI  22
NEBRASKA CITY  CLOUDY    26  15  63 E3        30.26R
PLATTSMOUTH    CLOUDY    27  17  65 E3        30.25R
$$

NEZ044-045-051>053-067-180000-
OMAHA AREA

CITY           SKY/WX    TMP DP  RH WIND       PRES   REMARKS
OMAHA EPPLEY   CLOUDY    28  16  60 E5        30.28S WCI  23
BLAIR          CLOUDY    27  18  69 NE5       30.25R WCI  22
FREMONT        CLOUDY    28  19  70 CALM      30.26R
MILLARD        CLOUDY    28  17  62 CALM      30.26S
OFFUTT AFB     CLOUDY    28  18  66 NE5       30.26S WCI  22
PLATTSMOUTH    CLOUDY    27  17  65 E3        30.25R
WAHOO          CLOUDY    26  17  67 E3        30.25S
$$



USA.gov is the U.S. government's official web portal to all federal, state and local government web resources and services.